Overview Statistics Trail Chart Weather Telemetry Raw packets
 

This is the latest recevied weather packets stored in our database for station/object DF1GD-10. If no packets are shown the sender has not sent any weather packets the latest 10 day(s).

<< 18 19 20 21 22 23 24 >>
Time Temp. Humidity Pressure Rain* Wind** Luminosity Snow
1788269271 22.78° C 31% 1020.9 hPa - - - -
1788268371 23.89° C 28% 1021.1 hPa - - - -
1788267471 22.22° C 32% 1021.1 hPa - - - -
1788266571 22.22° C 32% 1021.3 hPa - - - -
1788265671 22.22° C 33% 1021.3 hPa - - - -
1788264771 20.56° C 35% 1021.3 hPa - - - -
1788263870 21.11° C 33% 1021.5 hPa - - - -
1788262970 21.67° C 31% 1021.4 hPa - - - -
1788262070 23.33° C 28% 1021.4 hPa - - - -
1788261170 26.67° C 24% 1021.6 hPa - - - -
1788260270 21.67° C 34% 1021.7 hPa - - - -
1788259370 22.22° C 33% 1021.7 hPa - - - -
1788258470 21.67° C 33% 1021.9 hPa - - - -
1788257569 20° C 36% 1022 hPa - - - -
1788256668 21.67° C 34% 1022 hPa - - - -
1788254868 18.33° C 44% 1022 hPa - - - -
1788253968 17.78° C 46% 1022.1 hPa - - - -
1788253068 17.78° C 46% 1022 hPa - - - -
1788252167 17.22° C 50% 1021.9 hPa - - - -
1788251267 16.67° C 52% 1021.9 hPa - - - -
1788250366 16.11° C 58% 1022 hPa - - - -
1788247508 15° C 63% 1021.8 hPa - - - -
1788246607 15° C 66% 1021.9 hPa - - - -
1788245707 14.44° C 66% 1021.8 hPa - - - -
1788244807 14.44° C 68% 1021.7 hPa - - - -

* Rain since midnight (hover to see other rain measurements)
** Current wind speed in m/s (hover to see current wind gust speed)